Weather History for LKPR - March, 2014

Change the Weather History Date:

Wednesday, March 26, 2014

  Actual Average Record
Temperature  
Mean Temperature 37 °F -  
Max Temperature 49 °F 55 °F 64 °F (1999)
Min Temperature 25 °F 35 °F 21 °F (2013)
Degree Days  
Heating Degree Days 28    
Moisture  
Dew Point 31 °F    
Average Humidity 78    
Maximum Humidity 100    
Minimum Humidity 39    
Precipitation  
Precipitation 0.00 in 0.05 in - ()
Sea Level Pressure  
Sea Level Pressure 29.95 in    
Wind  
Wind Speed 5 mph ()    
Max Wind Speed 17 mph    
Max Gust Speed -    
Visibility 4.1 miles    
Events Fog , Rain    
Averages and records for this station are not official NWS values.
T = Trace of Precipitation, MM = Missing Value Source: Averaged Metar Reports

Daily Weather History Graph

Daily Weather History Graph

Search for Another Location

Airport or City:

Trip Planner

Search our weather history database for the weather conditions in past years. The results will help you decide how hot, cold, wet, or windy it might be!

Date:

Astronomy

Mar. 26, 2014 Rise Set
Actual Time 5:53 AM CET 6:25 PM CET
Civil Twilight 5:20 AM CET 6:57 PM CET
Nautical Twilight 4:42 AM CET 7:36 PM CET
Astronomical Twilight 4:01 AM CET 8:17 PM CET
Moon 3:15 AM CET (3/26) 1:19 PM CET (3/26)
Length of Visible Light 13h 37m
Length of Day
12h 32m
Waning Crescent, 24% of the Moon is Illuminated
Mar 26
Waning Crescent
Mar 30
New
Apr 7
First Quarter
Apr 15
Full
Apr 22
Last Quarter

Hourly Weather History & Observations

Time (CET) Temp. Windchill Dew Point Humidity Pressure Visibility Wind Dir Wind Speed Gust Speed Precip Events Conditions
12:00 AM 32 °F - 30 °F 90% 29.90 in 6 mi SE 6.7 mph - -   Scattered Clouds
12:00 AM 32.0 °F 26.4 °F 30.2 °F 93% 29.83 in 6.2 mi ESE 5.8 mph - N/A   Partly Cloudy
12:30 AM 33.8 °F 30.8 °F 32.0 °F 93% 29.83 in 5.6 mi SE 3.5 mph - N/A   Partly Cloudy
1:00 AM 29 °F - 28 °F 92% 29.92 in 5 mi North 2.2 mph - -   Mist
1:00 AM 30.2 °F 26.7 °F 28.4 °F 93% 29.83 in 5.0 mi East 3.5 mph - N/A   Unknown
1:30 AM 32.0 °F - 30.2 °F 93% 29.86 in 5.0 mi SE 2.3 mph - N/A   Unknown
2:00 AM 32 °F - 31 °F 95% 29.92 in 4 mi SSE 2.2 mph - -   Mist
2:00 AM 32.0 °F - 30.2 °F 93% 29.86 in 4.3 mi Variable 1.2 mph - N/A   Unknown
2:30 AM 32.0 °F - 30.2 °F 93% 29.86 in 3.1 mi Variable 1.2 mph - N/A   Mist
3:00 AM 29 °F - 28 °F 93% 29.93 in 3 mi ESE 2.2 mph - - Fog Patches of Fog
3:00 AM 32.0 °F - 30.2 °F 93% 29.86 in 3.1 mi Variable 1.2 mph - N/A Fog Fog
3:11 AM 30.2 °F - 30.2 °F 100% 29.86 in 2.5 mi Variable 2.3 mph - N/A Fog Fog
3:30 AM 30.2 °F - 28.4 °F 93% 29.86 in 3.1 mi Variable 2.3 mph - N/A Fog Fog
4:00 AM 30 °F - 29 °F 92% 29.94 in 2 mi SE 2.2 mph - - Fog Patches of Fog
4:00 AM 30.2 °F - 28.4 °F 93% 29.86 in 2.5 mi Calm Calm - N/A Fog Fog
4:30 AM 28.4 °F - 28.4 °F 100% 29.86 in 2.2 mi Variable 1.2 mph - N/A Fog Fog
4:41 AM 28.4 °F - 28.4 °F 100% 29.86 in 1.4 mi NW 2.3 mph - N/A Fog Patches of Fog
4:50 AM 28.4 °F - 28.4 °F 100% 29.89 in 0.6 mi NNW 1.2 mph - N/A Fog Light Freezing Fog
5:00 AM 28 °F - 27 °F 94% 29.96 in 1 mi NNW 2.2 mph - - Fog Patches of Fog
5:00 AM 28.4 °F - 26.6 °F 93% 29.89 in 0.7 mi NNW 2.3 mph - N/A Fog Patches of Fog
5:07 AM 28.4 °F - 28.4 °F 100% 29.89 in 0.6 mi Calm Calm - N/A Fog Light Freezing Fog
5:13 AM 28.4 °F - 28.4 °F 100% 29.89 in 0.6 mi Variable 2.3 mph - N/A Fog Light Freezing Fog
5:30 AM 28.4 °F 24.6 °F 28.4 °F 100% 29.89 in 0.4 mi East 3.5 mph - N/A Fog Light Freezing Fog
5:34 AM 28.4 °F - 28.4 °F 100% 29.89 in 0.4 mi Variable 2.3 mph - N/A Fog Light Freezing Fog
5:42 AM 28.4 °F - 26.6 °F 93% 29.89 in 0.3 mi Variable 2.3 mph - N/A Fog Light Freezing Fog
6:00 AM 26 °F - 26 °F 98% 29.98 in 0 mi NNW 2.2 mph - - Fog Fog
6:00 AM 26.6 °F - 24.8 °F 93% 29.89 in 0.3 mi Variable 1.2 mph - N/A Fog Light Freezing Fog
6:18 AM 26.6 °F - 26.6 °F 100% 29.89 in 0.3 mi North 2.3 mph - N/A Fog Light Freezing Fog
6:30 AM 28.4 °F 24.6 °F 28.4 °F 100% 29.89 in 0.2 mi North 3.5 mph - N/A Fog Light Freezing Fog
7:00 AM 29 °F - 28 °F 94% 30.00 in 0 mi North 4.5 mph - - Fog Fog
7:00 AM 28.4 °F - 28.4 °F 100% 29.92 in 0.2 mi Variable 2.3 mph - N/A Fog Light Freezing Fog
7:30 AM 30.2 °F 26.7 °F 28.4 °F 93% 29.92 in 0.1 mi North 3.5 mph - N/A Fog Light Freezing Fog
8:00 AM 30 °F - 29 °F 95% 30.01 in 0 mi NE 2.2 mph - - Fog Fog
8:00 AM 30.2 °F - 28.4 °F 93% 29.95 in 0.1 mi Variable 1.2 mph - N/A Fog Light Freezing Fog
8:30 AM 32.0 °F - 30.2 °F 93% 29.95 in 0.1 mi Variable 2.3 mph - N/A Fog Light Freezing Fog
9:00 AM 33 °F - 32 °F 93% 30.02 in 0 mi NNE 4.5 mph - - Fog Heavy Fog
9:00 AM 33.8 °F 30.8 °F 32.0 °F 93% 29.95 in 0.1 mi NNE 3.5 mph - N/A Fog Fog
9:05 AM 33.8 °F 29.6 °F 32.0 °F 93% 29.95 in 0.2 mi NE 4.6 mph - N/A Fog Fog
9:11 AM 33.8 °F 29.6 °F 32.0 °F 93% 29.95 in 0.2 mi NE 4.6 mph - N/A Fog Fog
9:17 AM 33.8 °F 29.6 °F 33.8 °F 100% 29.95 in 0.4 mi NE 4.6 mph - N/A Fog Fog
9:22 AM 33.8 °F 29.6 °F 33.8 °F 100% 29.95 in 0.4 mi NE 4.6 mph - N/A Fog Fog
9:24 AM 33.8 °F 29.6 °F 33.8 °F 100% 29.95 in 0.9 mi NE 4.6 mph - N/A Fog Mostly Cloudy
9:30 AM 33.8 °F 29.6 °F 33.8 °F 100% 29.95 in 0.6 mi NE 4.6 mph - N/A Fog Patches of Fog
9:39 AM 33.8 °F 27.7 °F 33.8 °F 100% 29.95 in 1.2 mi ENE 6.9 mph - N/A   Mostly Cloudy
9:46 AM 35.6 °F 30.7 °F 33.8 °F 93% 29.95 in 1.9 mi NE 5.8 mph - N/A   Mostly Cloudy
10:00 AM 37 °F - 36 °F 96% 30.02 in 2 mi NE 6.7 mph - - Fog Light Fog
10:00 AM 37.4 °F 32.8 °F 35.6 °F 93% 29.95 in 1.9 mi NE 5.8 mph - N/A   Mostly Cloudy
10:08 AM 37.4 °F 31.4 °F 37.4 °F 100% 29.98 in 3.1 mi East 8.1 mph - N/A   Scattered Clouds
10:30 AM 39.2 °F 34.2 °F 39.2 °F 100% 29.98 in 3.7 mi ENE 6.9 mph - N/A   Partly Cloudy
11:00 AM 43 °F - 37 °F 72% 30.01 in 6 mi East 8.9 mph - -   Scattered Clouds
11:00 AM 42.8 °F 38.6 °F 37.4 °F 81% 29.98 in 6.2 mi East 6.9 mph - N/A   Partly Cloudy
11:30 AM 44.6 °F 40.2 °F 35.6 °F 71% 29.98 in 6.2 mi East 8.1 mph - N/A   Partly Cloudy
12:00 PM 46 °F - 35 °F 56% 29.99 in 9 mi East 8.9 mph - -   Partly Cloudy
12:00 PM 46.4 °F 42.4 °F 33.8 °F 62% 29.95 in 6.2 mi East 8.1 mph - N/A   Scattered Clouds
12:30 PM 46.4 °F 42.9 °F 33.8 °F 62% 29.95 in 6.2 mi East 6.9 mph - N/A   Scattered Clouds
1:00 PM 47 °F - 33 °F 46% 29.99 in 12 mi East 8.9 mph - -   Partly Cloudy
1:00 PM 46.4 °F 41.5 °F 32.0 °F 57% 29.95 in 6.2 mi East 10.4 mph - N/A   Scattered Clouds
1:30 PM 46.4 °F 41.9 °F 32.0 °F 57% 29.95 in 6.2 mi ENE 9.2 mph - N/A Rain Light Rain Showers
1:50 PM 46.4 °F 41.9 °F 33.8 °F 62% 29.95 in 6.2 mi East 9.2 mph - N/A   Mostly Cloudy
2:00 PM 47 °F - 33 °F 46% 29.99 in 12 mi East 8.9 mph - - Rain Light Rain Showers
2:00 PM 46.4 °F 41.9 °F 32.0 °F 57% 29.95 in 6.2 mi East 9.2 mph - N/A   Mostly Cloudy
2:30 PM 48.2 °F - 32.0 °F 54% 29.95 in 6.2 mi East 11.5 mph - N/A   Scattered Clouds
3:00 PM 48 °F - 32 °F 42% 29.98 in 19 mi East 11.2 mph - -   Scattered Clouds
3:00 PM 48.2 °F - 32.0 °F 54% 29.95 in 6.2 mi East 11.5 mph - N/A   Partly Cloudy
3:30 PM 50.0 °F - 30.2 °F 47% 29.95 in 6.2 mi East 15.0 mph - N/A   Partly Cloudy
4:00 PM 48 °F - 31 °F 39% 29.99 in 19 mi East 15.7 mph - -   Partly Cloudy
4:00 PM 48.2 °F - 30.2 °F 50% 29.95 in 6.2 mi East 15.0 mph - N/A   Partly Cloudy
4:30 PM 48.2 °F - 28.4 °F 46% 29.95 in 6.2 mi East 15.0 mph - N/A   Partly Cloudy
5:00 PM 47 °F - 30 °F 39% 29.99 in 37 mi ENE 11.2 mph - -   Scattered Clouds
5:00 PM 46.4 °F 40.7 °F 30.2 °F 53% 29.98 in 6.2 mi East 12.7 mph - N/A   Partly Cloudy
5:30 PM 46.4 °F 41.1 °F 30.2 °F 53% 29.98 in - East 11.5 mph - N/A   Clear
6:00 PM 44 °F - 31 °F 49% 30.01 in 31 mi ENE 8.9 mph - -   Scattered Clouds
6:00 PM 44.6 °F 39.2 °F 30.2 °F 57% 29.98 in - East 10.4 mph - N/A   Clear
6:30 PM 42.8 °F 37.5 °F 30.2 °F 61% 29.98 in - East 9.2 mph - N/A   Clear
7:00 PM 40 °F - 28 °F 51% 30.04 in 25 mi ENE 8.9 mph - -   Partly Cloudy
7:00 PM 41.0 °F 35.8 °F 28.4 °F 61% 29.98 in - East 8.1 mph - N/A   Clear
7:30 PM 42.8 °F 36.2 °F 32.0 °F 66% 30.01 in - ENE 12.7 mph - N/A   Clear
8:00 PM 44 °F - 33 °F 53% 30.04 in 19 mi East 13.4 mph - -   Mostly Cloudy
8:00 PM 44.6 °F 38.1 °F 32.0 °F 61% 30.01 in - East 13.8 mph - N/A   Clear
8:30 PM 44.6 °F 37.2 °F 32.0 °F 61% 30.01 in - East 17.3 mph - N/A   Clear
9:00 PM 43 °F - 32 °F 54% 30.05 in 19 mi East 15.7 mph - -   Mostly Cloudy
9:00 PM 42.8 °F 35.1 °F 32.0 °F 66% 30.01 in - East 16.1 mph - N/A   Clear
9:30 PM 42.8 °F 34.8 °F 32.0 °F 66% 30.01 in - East 17.3 mph - N/A   Clear
10:00 PM 43 °F - 32 °F 54% 30.06 in 25 mi East 15.7 mph - -   Mostly Cloudy
10:00 PM 42.8 °F 35.1 °F 32.0 °F 66% 30.01 in - East 16.1 mph - N/A   Clear
10:30 PM 42.8 °F 35.4 °F 32.0 °F 66% 30.01 in - East 15.0 mph - N/A   Clear
11:00 PM 42 °F - 32 °F 58% 30.06 in 25 mi East 13.4 mph - -   Mostly Cloudy
11:00 PM 42.8 °F 35.1 °F 32.0 °F 66% 30.01 in - East 16.1 mph - N/A   Clear
11:30 PM 42.8 °F 35.1 °F 32.0 °F 66% 30.01 in - East 16.1 mph - N/A   Clear